Terminal Aerodrome Forecast
Issued by NWS

Home | Current Version | Previous Version | Text Only | Print | Product List | Glossary On
Versions: 1 2 3 4 5 6 7 8 9 10 11 12 13 14 15 16 17 18 19 20 21 22 23 24 25 26 27 28 29 30 31 32 33 34 35 36 37 38 39 40 41 42 43 44 45 46 47 48 49 50
000
FTUS44 KBMX 280000 AAA
TAFASN
TAF AMD
KASN 280001Z 2800/2824 VRB04KT 6SM -SHRA BR SCT010 BKN025
     FM280400 VRB05KT 4SM RA BR BKN007 OVC015
     FM280700 12006KT 2SM RA BR OVC007
     FM281700 25006KT 5SM SHRA BR OVC007=

USA.gov is the U.S. government's official web portal to all federal, state and local government web resources and services.